User: anonymous
Location: Unspecified
(0.0000°N, 0.0000°E)
Time: 17:57:56
(UTC+00:00)
Language:

NAVSTAR 64 (USA 206) - Orbit

View from above orbital plane
View from above orbital plane
View from above satellite
View from above satellite

Ground track
Ground track

The orbit data is extracted from the following two-line orbital elements,

1 35752U 09043A   14292.07572566 -.00000034  00000-0  00000+0 0  9351
2 35752 054.2529 198.9281 0038488 017.9192 225.4185 02.00559308 37930
Epoch (UTC): 19 October 2014 01:49:02
Eccentricity: 0.0038488
inclination: 54.2529°
perigee height: 20080 km
apogee height: 20284 km
right ascension of ascending node: 198.9281°
argument of perigee: 17.9192°
revolutions per day: 2.00559308
mean anomaly at epoch: 225.4185°
orbit number at epoch: 3793

The dashed part of the orbit path shows where the satellite is in the earth's shadow,  

DLR